Windom, MN

5:22 AM CST on February 18, 2018 (GMT -0600)
Windom Municipal

Weather History for KMWM - August, 2013

Change the Weather History Date:

Sunday, August 4, 2013

  Actual Average Record
Temperature  
Mean Temperature 63 °F -  
Max Temperature 78 °F 81 °F 96 °F (1955)
Min Temperature 48 °F 58 °F 44 °F (1978)
Degree Days  
Heating Degree Days 2    
Growing Degree Days 13 (Base 50)    
Moisture  
Dew Point 53 °F    
Average Humidity 66    
Maximum Humidity 93    
Minimum Humidity 44    
Precipitation  
Precipitation 0.02 in - - ()
Sea Level Pressure  
Sea Level Pressure 30.16 in    
Wind  
Wind Speed 1 mph (SE)    
Max Wind Speed 12 mph    
Max Gust Speed 17 mph    
Visibility 10 miles    
Events Rain , Thunderstorm    
Averages and records for this station are not official NWS values.
T = Trace of Precipitation, MM = Missing Value Source: NWS Daily Summary

Daily Weather History Graph

Daily Weather History Graph

Search for Another Location

Airport or City:

Trip Planner

Search our weather history database for the weather conditions in past years. The results will help you decide how hot, cold, wet, or windy it might be!

Date:

Astronomy

Aug. 04, 2013 Rise Set
Actual Time 6:12 AM CDT 8:39 PM CDT
Civil Twilight 5:39 AM CDT 9:12 PM CDT
Nautical Twilight 4:59 AM CDT 9:52 PM CDT
Astronomical Twilight 4:13 AM CDT 10:37 PM CDT
Moon 4:13 AM CDT (8/4) 7:03 PM CDT (8/4)
Length of Visible Light 15h 32m
Length of Day
14h 27m
Waning Crescent, 4% of the Moon is Illuminated
Aug 4
Waning Crescent
Aug 6
New
Aug 14
First Quarter
Aug 20
Full
Aug 28
Last Quarter

Hourly Weather History & Observations

Time (CDT) Temp. Dew Point Humidity Pressure Visibility Wind Dir Wind Speed Gust Speed Precip Events Conditions
12:12 AM 57.2 °F 50.0 °F 77% 30.23 in 10.0 mi Calm Calm - N/A   Clear
12:32 AM 57.2 °F 50.0 °F 77% 30.24 in 10.0 mi Calm Calm - N/A   Clear
12:53 AM 55.4 °F 48.2 °F 77% 30.25 in 10.0 mi Calm Calm - N/A   Clear
1:12 AM 55.4 °F 48.2 °F 77% 30.25 in 10.0 mi Calm Calm - N/A   Clear
1:32 AM 55.4 °F 48.2 °F 77% 30.25 in 10.0 mi Calm Calm - N/A   Clear
1:52 AM 55.4 °F 50.0 °F 82% 30.25 in 10.0 mi Calm Calm - N/A   Clear
2:12 AM 53.6 °F 48.2 °F 82% 30.24 in 10.0 mi Calm Calm - N/A   Clear
2:33 AM 51.8 °F 48.2 °F 88% 30.23 in 10.0 mi Calm Calm - N/A   Clear
2:52 AM 53.6 °F 46.4 °F 77% 30.22 in 10.0 mi Calm Calm - N/A   Clear
3:12 AM 53.6 °F 48.2 °F 82% 30.22 in 10.0 mi Calm Calm - N/A   Clear
3:33 AM 53.6 °F 48.2 °F 82% 30.20 in 10.0 mi Calm Calm - N/A   Clear
3:53 AM 51.8 °F 48.2 °F 88% 30.19 in 10.0 mi Calm Calm - N/A   Clear
4:12 AM 51.8 °F 48.2 °F 88% 30.19 in 10.0 mi Calm Calm - N/A   Clear
4:33 AM 51.8 °F 46.4 °F 82% 30.20 in 10.0 mi Calm Calm - N/A   Clear
4:53 AM 53.6 °F 48.2 °F 82% 30.20 in 10.0 mi Calm Calm - N/A   Clear
5:12 AM 51.8 °F 46.4 °F 82% 30.20 in 10.0 mi Calm Calm - N/A   Clear
5:33 AM 51.8 °F 46.4 °F 82% 30.21 in 10.0 mi Calm Calm - N/A   Clear
5:53 AM 51.8 °F 46.4 °F 82% 30.21 in 10.0 mi Calm Calm - N/A   Clear
6:12 AM 48.2 °F 46.4 °F 93% 30.21 in 10.0 mi Calm Calm - N/A   Clear
6:33 AM 48.2 °F 46.4 °F 93% 30.22 in 10.0 mi Calm Calm - N/A   Clear
6:53 AM 51.8 °F 46.4 °F 82% 30.21 in 10.0 mi Calm Calm - N/A   Clear
7:12 AM 51.8 °F 46.4 °F 82% 30.23 in 10.0 mi Calm Calm - N/A   Clear
7:32 AM 51.8 °F 46.4 °F 82% 30.23 in 10.0 mi Calm Calm - N/A   Clear
7:53 AM 57.2 °F 51.8 °F 82% 30.24 in 10.0 mi Calm Calm - N/A   Clear
8:12 AM 60.8 °F 51.8 °F 72% 30.24 in 10.0 mi Calm Calm - N/A   Clear
8:32 AM 62.6 °F 53.6 °F 72% 30.24 in 10.0 mi Calm Calm - N/A   Clear
8:53 AM 64.4 °F 53.6 °F 68% 30.23 in 10.0 mi Calm Calm - N/A   Clear
9:12 AM 66.2 °F 53.6 °F 64% 30.23 in 10.0 mi Calm Calm - N/A   Clear
9:33 AM 68.0 °F 51.8 °F 56% 30.21 in 10.0 mi Calm Calm - N/A   Clear
9:52 AM 68.0 °F 51.8 °F 56% 30.18 in 10.0 mi Calm Calm - N/A   Clear
10:12 AM 68.0 °F 53.6 °F 60% 30.19 in 10.0 mi Calm Calm - N/A   Clear
10:33 AM 68.0 °F 55.4 °F 64% 30.18 in 10.0 mi Calm Calm - N/A   Clear
10:52 AM 69.8 °F 55.4 °F 60% 30.18 in 10.0 mi ESE 3.5 mph - N/A   Clear
11:12 AM 69.8 °F 55.4 °F 60% 30.17 in 10.0 mi SSE 4.6 mph - N/A   Scattered Clouds
11:33 AM 71.6 °F 53.6 °F 53% 30.17 in 10.0 mi South 4.6 mph - N/A   Scattered Clouds
11:52 AM 71.6 °F 51.8 °F 50% 30.17 in 10.0 mi SSE 8.1 mph - N/A   Scattered Clouds
12:12 PM 73.4 °F 50.0 °F 44% 30.17 in 10.0 mi SSE 6.9 mph - N/A   Clear
12:33 PM 73.4 °F 51.8 °F 47% 30.17 in 10.0 mi SSE 6.9 mph - N/A   Clear
12:52 PM 73.4 °F 50.0 °F 44% 30.17 in 10.0 mi SSE 6.9 mph - N/A   Clear
1:12 PM 73.4 °F 50.0 °F 44% 30.17 in 10.0 mi SSE 8.1 mph - N/A   Clear
1:33 PM 73.4 °F 53.6 °F 50% 30.17 in 10.0 mi Calm Calm - N/A   Clear
1:52 PM 73.4 °F 53.6 °F 50% 30.17 in 10.0 mi Calm Calm - N/A   Clear
2:12 PM 73.4 °F 53.6 °F 50% 30.16 in 10.0 mi Calm Calm - N/A   Clear
2:33 PM 75.2 °F 53.6 °F 47% 30.15 in 10.0 mi Calm Calm - N/A   Clear
2:52 PM 75.2 °F 53.6 °F 47% 30.15 in 10.0 mi East 4.6 mph - N/A   Scattered Clouds
3:12 PM 75.2 °F 53.6 °F 47% 30.14 in 10.0 mi Calm Calm - N/A   Mostly Cloudy
3:32 PM 78.8 °F 55.4 °F 44% 30.14 in 10.0 mi ESE 8.1 mph - N/A   Mostly Cloudy
3:52 PM 77.0 °F 53.6 °F 44% 30.13 in 10.0 mi Calm Calm - N/A   Mostly Cloudy
4:12 PM 75.2 °F 55.4 °F 50% 30.13 in 10.0 mi ESE 6.9 mph - N/A   Mostly Cloudy
4:32 PM 75.2 °F 53.6 °F 47% 30.12 in 10.0 mi ESE 8.1 mph - N/A   Mostly Cloudy
4:52 PM 77.0 °F 53.6 °F 44% 30.11 in 10.0 mi ESE 8.1 mph - N/A   Scattered Clouds
5:12 PM 77.0 °F 53.6 °F 44% 30.11 in 10.0 mi SE 3.5 mph - N/A   Scattered Clouds
5:32 PM 75.2 °F 53.6 °F 47% 30.10 in 10.0 mi ESE 4.6 mph - N/A   Scattered Clouds
5:52 PM 75.2 °F 53.6 °F 47% 30.10 in 10.0 mi SE 3.5 mph - N/A   Scattered Clouds
6:13 PM 77.0 °F 55.4 °F 47% 30.09 in 10.0 mi ESE 8.1 mph - N/A   Scattered Clouds
6:32 PM 77.0 °F 55.4 °F 47% 30.07 in 10.0 mi East 6.9 mph - N/A   Clear
6:52 PM 75.2 °F 53.6 °F 47% 30.07 in 10.0 mi ESE 9.2 mph - N/A   Clear
7:13 PM 73.4 °F 55.4 °F 53% 30.06 in 10.0 mi ESE 3.5 mph - N/A   Clear
7:32 PM 73.4 °F 55.4 °F 53% 30.06 in 10.0 mi Calm Calm - N/A   Clear
7:52 PM 71.6 °F 57.2 °F 60% 30.06 in 10.0 mi Calm Calm - N/A   Clear
8:13 PM 71.6 °F 57.2 °F 60% 30.05 in 10.0 mi Calm Calm - N/A   Clear
8:32 PM 71.6 °F 57.2 °F 60% 30.06 in 10.0 mi SE 3.5 mph - N/A   Clear
8:52 PM 69.8 °F 57.2 °F 64% - 10.0 mi ESE 6.9 mph - N/A   Clear
9:13 PM 69.8 °F 57.2 °F 64% 30.03 in 10.0 mi SE 9.2 mph - N/A Rain Light Rain
9:32 PM 68.0 °F 59.0 °F 73% 30.07 in 10.0 mi Calm Calm - N/A Rain Light Rain
9:52 PM 66.2 °F 60.8 °F 83% 30.05 in 10.0 mi SSE 6.9 mph - N/A Rain Light Rain
10:13 PM 66.2 °F 60.8 °F 83% 30.04 in 10.0 mi Calm Calm - N/A Rain , Thunderstorm Light Thunderstorms and Rain
10:32 PM 66.2 °F 60.8 °F 83% 30.03 in 10.0 mi Calm Calm - N/A   Light Drizzle
10:52 PM 66.2 °F 60.8 °F 83% 30.04 in 10.0 mi Calm Calm - N/A Rain , Thunderstorm Light Thunderstorms and Rain
11:12 PM 66.2 °F 60.8 °F 83% 30.04 in 10.0 mi Calm Calm - 0.02 in Rain , Thunderstorm Rain
11:32 PM 66.2 °F 60.8 °F 83% 30.02 in 10.0 mi South 11.5 mph 16.1 mph 0.02 in Rain , Thunderstorm Light Thunderstorms and Rain
11:53 PM 64.4 °F 60.8 °F 88% 30.00 in 10.0 mi SSE 10.4 mph 17.3 mph 0.02 in Rain Light Rain